,,Stat6,,Stat2,,Stat8,,Stat9,,Stat10,,Wind1,,Wind1,
time,status,PA1M_AVG,status,PR1M_SUM,status,RH1M_AVG,status,SR1M_AVG,status,TA1M_AVG,status,W1dAve1m,status,W1sAve1m,
2006-03-21, 00:00:01,VALID,917.095,VALID,0,VALID,98.7147,VALID,-0.0339617,VALID,20.3958,VALID,345,VALID,0.0477834,
2006-03-21, 00:01:01,VALID,917.084,VALID,0,VALID,98.4845,VALID,-0.0339617,VALID,20.4154,VALID,345,VALID,0.00672238,
2006-03-21, 00:02:00,VALID,917.071,VALID,0,VALID,98.5176,VALID,0,VALID,20.092,VALID,301,VALID,0.444568,
2006-03-21, 00:03:01,VALID,917.067,VALID,0,VALID,98.6167,VALID,-0.0169808,VALID,20.514,VALID,262,VALID,0.400724,
2006-03-21, 00:04:00,VALID,917.052,VALID,0,VALID,98.7846,VALID,-0.0169808,VALID,21.286,VALID,262,VALID,0.218178,
2006-03-21, 00:05:01,VALID,917.033,VALID,0,VALID,98.8838,VALID,0,VALID,20.7329,VALID,262,VALID,0.138529,
2006-03-21, 00:06:00,VALID,917.006,VALID,0,VALID,98.9881,VALID,0,VALID,20.3548,VALID,262,VALID,0,
2006-03-21, 00:07:00,VALID,916.988,VALID,0,VALID,99.0707,VALID,0,VALID,20.8067,VALID,262,VALID,0,
2006-03-21, 00:08:01,VALID,916.967,VALID,0,VALID,99.1419,VALID,0,VALID,20.3915,VALID,262,VALID,0.113021,
2006-03-21, 00:09:00,VALID,916.947,VALID,0,VALID,99.264,VALID,-0.0169808,VALID,20.3684,VALID,263,VALID,0.103693,
2006-03-21, 00:10:00,VALID,916.936,VALID,0,VALID,99.2653,VALID,-0.0169808,VALID,20.945,VALID,263,VALID,0.0411932,
2006-03-21, 00:11:01,VALID,916.921,VALID,0,VALID,99.1674,VALID,-0.0339617,VALID,20.7154,VALID,263,VALID,0.00520833,
2006-03-21, 00:12:00,VALID,916.903,VALID,0,VALID,99.1216,VALID,-0.0169808,VALID,20.8277,VALID,263,VALID,0.062872,
2006-03-21, 00:13:01,VALID,916.899,VALID,0,VALID,99.0313,VALID,-0.0169808,VALID,20.4324,VALID,263,VALID,0.0909722,
2006-03-21, 00:14:00,VALID,916.896,VALID,0,VALID,99.0109,VALID,0,VALID,20.4522,VALID,263,VALID,0.00457317,
2006-03-21, 00:15:00,VALID,916.898,VALID,0,VALID,99.0631,VALID,-0.0339617,VALID,21.5193,VALID,263,VALID,0,
2006-03-21, 00:16:01,VALID,916.885,VALID,0,VALID,99.0669,VALID,-0.0169808,VALID,20.7776,VALID,263,VALID,0.00647866,
2006-03-21, 00:17:00,VALID,916.874,VALID,0,VALID,99.0936,VALID,0.0849042,VALID,21.1438,VALID,263,VALID,0.0568677,
2006-03-21, 00:18:00,VALID,916.854,VALID,0,VALID,99.0478,VALID,0.0509425,VALID,21.0876,VALID,263,VALID,0.157703,
2006-03-21, 00:19:00,VALID,916.843,VALID,0,VALID,98.8406,VALID,0.0849042,VALID,20.6766,VALID,263,VALID,0.206445,
2006-03-21, 00:20:01,VALID,916.829,VALID,0,VALID,98.8622,VALID,0,VALID,21.0835,VALID,263,VALID,0.233994,
2006-03-21, 00:21:00,VALID,916.804,VALID,0,VALID,98.8164,VALID,0.101885,VALID,20.7011,VALID,263,VALID,0.381882,
2006-03-21, 00:22:01,VALID,916.786,VALID,0,VALID,98.9054,VALID,0.0849042,VALID,20.5007,VALID,263,VALID,0.257813,
2006-03-21, 00:23:01,VALID,916.766,VALID,0,VALID,99.0287,VALID,-0.0169808,VALID,19.8238,VALID,263,VALID,0.0348837,
2006-03-21, 00:24:00,VALID,916.746,VALID,0,VALID,99.1826,VALID,0,VALID,20.0595,VALID,263,VALID,0,
2006-03-21, 00:25:00,VALID,916.745,VALID,0,VALID,99.3098,VALID,-0.0339617,VALID,19.6985,VALID,263,VALID,0,
2006-03-21, 00:26:00,VALID,916.735,VALID,0,VALID,99.3823,VALID,-0.0339617,VALID,19.5315,VALID,263,VALID,0.0932173,
2006-03-21, 00:27:00,VALID,916.744,VALID,0,VALID,99.4255,VALID,-0.0509425,VALID,19.8475,VALID,263,VALID,0.107088,
2006-03-21, 00:28:00,VALID,916.745,VALID,0,VALID,99.4446,VALID,-0.0339617,VALID,20.4182,VALID,263,VALID,0.0403646,
2006-03-21, 00:29:00,VALID,916.762,VALID,0,VALID,99.4293,VALID,-0.0339617,VALID,20.7387,VALID,263,VALID,0.184411,
2006-03-21, 00:30:01,VALID,916.771,VALID,0,VALID,99.4229,VALID,-0.0509425,VALID,20.2578,VALID,263,VALID,0.198946,
2006-03-21, 00:31:00,VALID,916.76,VALID,0,VALID,99.353,VALID,0,VALID,19.9895,VALID,263,VALID,0.126995,
2006-03-21, 00:32:01,VALID,916.743,VALID,0,VALID,99.3136,VALID,-0.0169808,VALID,20.3409,VALID,263,VALID,0.306691,
2006-03-21, 00:33:00,VALID,916.721,VALID,0,VALID,99.3683,VALID,-0.0339617,VALID,19.734,VALID,263,VALID,0.0200639,
2006-03-21, 00:34:01,VALID,916.682,VALID,0,VALID,99.4102,VALID,-0.0169808,VALID,20.342,VALID,263,VALID,0,
2006-03-21, 00:35:01,VALID,916.655,VALID,0,VALID,99.4687,VALID,0,VALID,21.498,VALID,263,VALID,0.210211,
2006-03-21, 00:36:01,VALID,916.607,VALID,0,VALID,99.4484,VALID,-0.0679233,VALID,19.9531,VALID,266,VALID,0.502046,
2006-03-21, 00:37:00,VALID,916.593,VALID,0,VALID,99.367,VALID,-0.0509425,VALID,20.1132,VALID,269,VALID,0.395647,
2006-03-21, 00:38:00,VALID,916.577,VALID,0,VALID,99.2653,VALID,-0.0849042,VALID,19.4142,VALID,269,VALID,0.214935,
2006-03-21, 00:39:00,VALID,916.577,VALID,0,VALID,99.1661,VALID,-0.0339617,VALID,20.3297,VALID,269,VALID,0.281977,
2006-03-21, 00:40:00,VALID,916.569,VALID,0,VALID,99.1305,VALID,-0.0509425,VALID,20.0137,VALID,269,VALID,0.216797,
2006-03-21, 00:41:00,VALID,916.533,VALID,0,VALID,99.2017,VALID,-0.0169808,VALID,20.0225,VALID,269,VALID,0.328906,
2006-03-21, 00:42:00,VALID,916.529,VALID,0,VALID,99.236,VALID,0.0509425,VALID,19.7836,VALID,269,VALID,0.114769,
2006-03-21, 00:43:00,VALID,916.502,VALID,0,VALID,99.2538,VALID,0.0509425,VALID,21.0067,VALID,269,VALID,0.260069,
2006-03-21, 00:44:00,VALID,916.487,VALID,0,VALID,99.1915,VALID,0.0509425,VALID,20.4352,VALID,270,VALID,0.419271,
2006-03-21, 00:45:00,VALID,916.473,VALID,0,VALID,99.1152,VALID,0.0169808,VALID,20.2992,VALID,271,VALID,0.360283,
2006-03-21, 00:46:00,VALID,916.475,VALID,0,VALID,99.1241,VALID,-0.0339617,VALID,19.9325,VALID,271,VALID,0.268714,
2006-03-21, 00:47:00,VALID,916.467,VALID,0,VALID,99.0949,VALID,-0.0169808,VALID,20.5069,VALID,271,VALID,0.235283,
2006-03-21, 00:48:00,VALID,916.474,VALID,0,VALID,99.1,VALID,-0.0339617,VALID,20.7062,VALID,271,VALID,0.307106,
2006-03-21, 00:49:01,VALID,916.479,VALID,0,VALID,99.0898,VALID,-0.0849042,VALID,21.054,VALID,271,VALID,0.175951,
2006-03-21, 00:50:01,VALID,916.489,VALID,0,VALID,99.1012,VALID,-0.0339617,VALID,19.9128,VALID,271,VALID,0.122024,
2006-03-21, 00:51:00,VALID,916.493,VALID,0,VALID,99.1101,VALID,-0.0339617,VALID,21.1231,VALID,271,VALID,0.170573,
2006-03-21, 00:52:00,VALID,916.489,VALID,0,VALID,99.0974,VALID,0,VALID,20.8398,VALID,271,VALID,0.185547,
2006-03-21, 00:53:01,VALID,916.477,VALID,0,VALID,99.044,VALID,0.0169808,VALID,20.0526,VALID,271,VALID,0.0379972,
2006-03-21, 00:54:00,VALID,916.459,VALID,0,VALID,99.1101,VALID,0.0169808,VALID,19.8254,VALID,271,VALID,0.0954649,
2006-03-21, 00:55:00,VALID,916.446,VALID,0,VALID,99.0275,VALID,0.0509425,VALID,20.1047,VALID,271,VALID,0,
2006-03-21, 00:56:00,VALID,916.441,VALID,0,VALID,99.1496,VALID,0.0339617,VALID,20.1732,VALID,271,VALID,0,
2006-03-21, 00:57:01,VALID,916.413,VALID,0,VALID,99.222,VALID,-0.0679233,VALID,20.8753,VALID,271,VALID,0.129688,
2006-03-21, 00:58:01,VALID,916.376,VALID,0,VALID,99.2615,VALID,-0.0169808,VALID,20.2188,VALID,271,VALID,0.111852,
2006-03-21, 00:59:01,VALID,916.364,VALID,0,VALID,99.3479,VALID,-0.0339617,VALID,21.0197,VALID,271,VALID,0.259909,
2006-03-21, 01:00:00,VALID,916.35,VALID,0,VALID,99.3466,VALID,-0.0169808,VALID,20.0199,VALID,271,VALID,0.28869,
2006-03-21, 01:01:01,VALID,916.335,VALID,0,VALID,99.3975,VALID,-0.0339617,VALID,20.3841,VALID,271,VALID,0.207127,
2006-03-21, 01:02:00,VALID,916.336,VALID,0,VALID,99.4611,VALID,0,VALID,20.5644,VALID,271,VALID,0.030231,
2006-03-21, 01:03:01,VALID,916.327,VALID,0,VALID,99.559,VALID,-0.0339617,VALID,20.2376,VALID,271,VALID,0,
2006-03-21, 01:04:00,VALID,916.336,VALID,0,VALID,99.676,VALID,-0.0339617,VALID,19.978,VALID,271,VALID,0,
2006-03-21, 01:05:00,VALID,916.329,VALID,0,VALID,99.7307,VALID,-0.0339617,VALID,19.8923,VALID,271,VALID,0,
2006-03-21, 01:06:01,VALID,916.333,VALID,0,VALID,99.6989,VALID,-0.0339617,VALID,20.3119,VALID,271,VALID,0,
2006-03-21, 01:07:01,VALID,916.318,VALID,0,VALID,99.7103,VALID,-0.0509425,VALID,20.6929,VALID,271,VALID,0.00114329,
2006-03-21, 01:08:01,VALID,916.307,VALID,0,VALID,99.7027,VALID,-0.0169808,VALID,21.1401,VALID,271,VALID,0.241279,
2006-03-21, 01:09:01,VALID,916.305,VALID,0,VALID,99.6722,VALID,-0.0849042,VALID,19.4688,VALID,271,VALID,0.201308,
2006-03-21, 01:10:01,VALID,916.273,VALID,0,VALID,99.6798,VALID,-0.0169808,VALID,20.9753,VALID,271,VALID,0.330859,
2006-03-21, 01:11:01,VALID,916.267,VALID,0,VALID,99.7523,VALID,0.0339617,VALID,20.7211,VALID,271,VALID,0.320499,
2006-03-21, 01:12:00,VALID,916.242,VALID,0,VALID,99.7459,VALID,-0.0169808,VALID,18.9578,VALID,271,VALID,0.0814732,
2006-03-21, 01:13:01,VALID,916.223,VALID,0,VALID,99.7078,VALID,0,VALID,20.6083,VALID,271,VALID,0.250908,
2006-03-21, 01:14:01,VALID,916.179,VALID,0,VALID,99.737,VALID,-0.0509425,VALID,20.8386,VALID,271,VALID,0.383176,
2006-03-21, 01:15:01,VALID,916.145,VALID,0,VALID,99.7358,VALID,-0.0509425,VALID,20.3407,VALID,315,VALID,0.566964,
2006-03-21, 01:16:01,VALID,916.09,VALID,0,VALID,99.7027,VALID,-0.0339617,VALID,20.3155,VALID,2,VALID,0.76669,
2006-03-21, 01:17:01,VALID,916.045,VALID,0,VALID,99.6429,VALID,-0.0679233,VALID,19.7593,VALID,10,VALID,0.846475,
2006-03-21, 01:18:01,VALID,915.994,VALID,0,VALID,99.5463,VALID,-0.0339617,VALID,20.4393,VALID,10,VALID,0.881055,
2006-03-21, 01:19:01,VALID,915.935,VALID,0,VALID,99.456,VALID,-0.0509425,VALID,20.2029,VALID,7,VALID,1.03988,
2006-03-21, 01:20:01,VALID,915.887,VALID,0,VALID,99.3975,VALID,-0.0679233,VALID,20.404,VALID,17,VALID,1.28506,
2006-03-21, 01:21:00,VALID,915.822,VALID,0,VALID,99.4725,VALID,-0.0679233,VALID,20.0202,VALID,22,VALID,1.23165,
2006-03-21, 01:22:01,VALID,915.772,VALID,0,VALID,99.4764,VALID,-0.0339617,VALID,19.6862,VALID,14,VALID,1.20098,
2006-03-21, 01:23:01,VALID,915.759,VALID,0,VALID,99.5577,VALID,-0.0509425,VALID,20.5862,VALID,10,VALID,0.947917,
2006-03-21, 01:24:00,VALID,915.744,VALID,0,VALID,99.6378,VALID,-0.0679233,VALID,19.4978,VALID,355,VALID,0.89755,
2006-03-21, 01:25:01,VALID,915.729,VALID,0,VALID,99.723,VALID,-0.0849042,VALID,19.6456,VALID,351,VALID,0.790972,
2006-03-21, 01:26:01,VALID,915.696,VALID,0,VALID,99.8235,VALID,-0.0339617,VALID,20.6293,VALID,347,VALID,0.647321,
2006-03-21, 01:27:01,VALID,915.676,VALID,0,VALID,99.9514,VALID,-0.0339617,VALID,20.6944,VALID,356,VALID,0.680959,
2006-03-21, 01:28:01,VALID,915.656,VALID,0,VALID,100,VALID,-0.0339617,VALID,20.1781,VALID,1,VALID,0.486235,
2006-03-21, 01:29:01,VALID,915.652,VALID,0,VALID,100,VALID,-0.0509425,VALID,19.6732,VALID,2,VALID,0.630087,
2006-03-21, 01:30:01,VALID,915.642,VALID,0,VALID,100,VALID,-0.0679233,VALID,20.7251,VALID,15,VALID,0.772866,
2006-03-21, 01:31:01,VALID,915.615,VALID,0,VALID,100,VALID,-0.0679233,VALID,19.5592,VALID,4,VALID,0.854226,
2006-03-21, 01:32:01,VALID,915.599,VALID,0,VALID,100,VALID,-0.101885,VALID,20.428,VALID,351,VALID,0.885603,
2006-03-21, 01:33:01,VALID,915.576,VALID,0,VALID,100,VALID,-0.0679233,VALID,19.895,VALID,346,VALID,1.01277,
2006-03-21, 01:34:01,VALID,915.553,VALID,0,VALID,100,VALID,-0.0679233,VALID,20.6231,VALID,355,VALID,0.81593,
2006-03-21, 01:35:01,VALID,915.536,VALID,0,VALID,100,VALID,-0.0849042,VALID,21.3467,VALID,358,VALID,0.328536,
2006-03-21, 01:36:01,VALID,915.512,VALID,0,VALID,100,VALID,-0.0339617,VALID,20.8188,VALID,358,VALID,0.0445668,
2006-03-21, 01:37:01,VALID,915.483,VALID,0,VALID,100,VALID,-0.0509425,VALID,20.8748,VALID,358,VALID,0.0617378,
2006-03-21, 01:38:01,VALID,915.456,VALID,0,VALID,100,VALID,0.0169808,VALID,20.2433,VALID,358,VALID,0.0406977,
2006-03-21, 01:39:01,VALID,915.429,VALID,0,VALID,100,VALID,-0.0849042,VALID,20.3101,VALID,358,VALID,0,
2006-03-21, 01:40:01,VALID,915.415,VALID,0,VALID,100,VALID,-0.0339617,VALID,20.5248,VALID,360,VALID,0.35992,
2006-03-21, 01:41:01,VALID,915.402,VALID,0,VALID,100,VALID,0,VALID,19.763,VALID,11,VALID,0.859557,
2006-03-21, 01:42:01,VALID,915.414,VALID,0,VALID,100,VALID,0.0169808,VALID,19.6381,VALID,12,VALID,0.597479,
2006-03-21, 01:43:00,VALID,915.417,VALID,0,VALID,100,VALID,-0.0849042,VALID,19.2427,VALID,18,VALID,0.377477,
2006-03-21, 01:44:00,VALID,915.413,VALID,0,VALID,100,VALID,-0.0679233,VALID,19.6126,VALID,21,VALID,0.00446429,
2006-03-21, 01:45:00,VALID,915.412,VALID,0,VALID,100,VALID,0,VALID,20.5818,VALID,21,VALID,0.0520198,
2006-03-21, 01:46:00,VALID,915.398,VALID,0,VALID,100,VALID,-0.0509425,VALID,20.085,VALID,21,VALID,0.0111328,
2006-03-21, 01:47:00,VALID,915.402,VALID,0,VALID,100,VALID,-0.0849042,VALID,19.7444,VALID,21,VALID,0.0152616,
2006-03-21, 01:48:00,VALID,915.406,VALID,0,VALID,100,VALID,-0.0679233,VALID,20.376,VALID,21,VALID,0,
2006-03-21, 01:49:00,VALID,915.417,VALID,0,VALID,100,VALID,-0.0679233,VALID,20.1258,VALID,21,VALID,0.126715,
2006-03-21, 01:50:00,VALID,915.419,VALID,0,VALID,100,VALID,-0.0339617,VALID,19.847,VALID,21,VALID,0.062686,
2006-03-21, 01:51:00,VALID,915.408,VALID,0,VALID,100,VALID,0,VALID,20.404,VALID,21,VALID,0.0510538,
2006-03-21, 01:52:00,VALID,915.388,VALID,0,VALID,100,VALID,0,VALID,20.8921,VALID,21,VALID,0.145008,
2006-03-21, 01:53:00,VALID,915.382,VALID,0,VALID,100,VALID,-0.0169808,VALID,20.7139,VALID,21,VALID,0.522529,
2006-03-21, 01:54:00,VALID,915.393,VALID,0,VALID,100,VALID,0,VALID,20.4978,VALID,21,VALID,0.319633,
2006-03-21, 01:55:00,VALID,915.395,VALID,0,VALID,100,VALID,0,VALID,21.4055,VALID,21,VALID,0.318229,
2006-03-21, 01:56:00,VALID,915.391,VALID,0,VALID,100,VALID,-0.0169808,VALID,20.0325,VALID,21,VALID,0.575149,
2006-03-21, 01:57:00,VALID,915.395,VALID,0,VALID,100,VALID,0,VALID,20.7179,VALID,21,VALID,0.4133,
2006-03-21, 01:58:00,VALID,915.381,VALID,0,VALID,100,VALID,0,VALID,19.5074,VALID,21,VALID,0.194222,
2006-03-21, 01:59:00,VALID,915.372,VALID,0,VALID,100,VALID,0,VALID,20.5548,VALID,21,VALID,0.503634,
2006-03-21, 02:00:00,VALID,915.343,VALID,0,VALID,100,VALID,-0.0169808,VALID,20.0042,VALID,21,VALID,0.954167,
2006-03-21, 02:01:00,VALID,915.317,VALID,0,VALID,100,VALID,0,VALID,20.7022,VALID,17,VALID,0.881669,
2006-03-21, 02:02:00,VALID,915.297,VALID,0,VALID,100,VALID,0,VALID,19.7233,VALID,16,VALID,0.793826,
2006-03-21, 02:03:00,VALID,915.271,VALID,0,VALID,100,VALID,0.0169808,VALID,20.3524,VALID,27,VALID,0.779433,
2006-03-21, 02:04:00,VALID,915.237,VALID,0,VALID,100,VALID,0.0169808,VALID,20.618,VALID,14,VALID,0.552871,
2006-03-21, 02:05:00,VALID,915.203,VALID,0,VALID,100,VALID,0.0339617,VALID,20.1839,VALID,15,VALID,0.729167,
2006-03-21, 02:06:00,VALID,915.171,VALID,0,VALID,100,VALID,-0.0679233,VALID,20.3212,VALID,14,VALID,0.345796,
2006-03-21, 02:07:00,VALID,915.146,VALID,0,VALID,100,VALID,-0.0679233,VALID,20.721,VALID,14,VALID,0.584604,
2006-03-21, 02:08:00,VALID,915.128,VALID,0,VALID,100,VALID,-0.0849042,VALID,19.9108,VALID,22,VALID,1.01122,
2006-03-21, 02:09:00,VALID,915.109,VALID,0,VALID,100,VALID,0,VALID,20.7181,VALID,24,VALID,1.10728,
2006-03-21, 02:10:00,VALID,915.074,VALID,0,VALID,100,VALID,-0.0169808,VALID,20.5304,VALID,20,VALID,0.827381,
2006-03-21, 02:11:00,VALID,915.053,VALID,0,VALID,100,VALID,-0.0679233,VALID,18.6464,VALID,9,VALID,0.724382,
2006-03-21, 02:12:00,VALID,915.031,VALID,0,VALID,100,VALID,-0.0509425,VALID,19.5438,VALID,20,VALID,0.870994,
2006-03-21, 02:13:00,VALID,915.025,VALID,0,VALID,100,VALID,-0.0509425,VALID,20.6937,VALID,358,VALID,0.773777,
2006-03-21, 02:14:00,VALID,915.017,VALID,0,VALID,100,VALID,-0.0509425,VALID,19.888,VALID,2,VALID,0.668786,
2006-03-21, 02:15:00,VALID,915.006,VALID,0,VALID,100,VALID,-0.0169808,VALID,20.2312,VALID,29,VALID,0.417039,
2006-03-21, 02:16:00,VALID,914.989,VALID,0,VALID,100,VALID,-0.0849042,VALID,20.2893,VALID,26,VALID,0.132068,
2006-03-21, 02:17:00,VALID,914.997,VALID,0,VALID,100,VALID,-0.101885,VALID,20.7735,VALID,26,VALID,0.00177557,
2006-03-21, 02:18:00,VALID,914.982,VALID,0,VALID,100,VALID,-0.0339617,VALID,21.0418,VALID,26,VALID,0.0340909,
2006-03-21, 02:19:00,VALID,914.977,VALID,0,VALID,100,VALID,-0.0169808,VALID,20.3588,VALID,26,VALID,0.0774148,
2006-03-21, 02:20:00,VALID,914.961,VALID,0,VALID,100,VALID,-0.0509425,VALID,20.1612,VALID,25,VALID,0.152058,
2006-03-21, 02:21:00,VALID,914.955,VALID,0,VALID,100,VALID,0,VALID,20.1535,VALID,25,VALID,0.110828,
2006-03-21, 02:22:00,VALID,914.938,VALID,0,VALID,100,VALID,-0.0849042,VALID,20.7328,VALID,25,VALID,0.0870808,
2006-03-21, 02:23:00,VALID,914.93,VALID,0,VALID,100,VALID,-0.0679233,VALID,21.1473,VALID,25,VALID,0.612351,
2006-03-21, 02:24:00,VALID,914.904,VALID,0,VALID,100,VALID,0.0169808,VALID,19.4116,VALID,25,VALID,0.837003,
2006-03-21, 02:25:00,VALID,914.897,VALID,0,VALID,100,VALID,0,VALID,19.9179,VALID,28,VALID,0.993229,
2006-03-21, 02:26:00,VALID,914.871,VALID,0,VALID,100,VALID,0,VALID,20.344,VALID,27,VALID,0.779762,
2006-03-21, 02:27:00,VALID,914.883,VALID,0,VALID,100,VALID,-0.101885,VALID,20.4489,VALID,4,VALID,0.315039,
2006-03-21, 02:28:00,VALID,914.885,VALID,0,VALID,100,VALID,-0.0849042,VALID,20.3131,VALID,3,VALID,0.240184,
2006-03-21, 02:29:00,VALID,914.891,VALID,0,VALID,100,VALID,0,VALID,20.4326,VALID,3,VALID,0,
2006-03-21, 02:30:00,VALID,914.903,VALID,0,VALID,100,VALID,0,VALID,20.2565,VALID,3,VALID,0.0696181,
2006-03-21, 02:31:00,VALID,914.939,VALID,0,VALID,100,VALID,0,VALID,20.0935,VALID,3,VALID,0.160633,
2006-03-21, 02:32:00,VALID,914.958,VALID,0,VALID,100,VALID,0,VALID,19.8488,VALID,3,VALID,0,
2006-03-21, 02:33:00,VALID,914.992,VALID,0,VALID,100,VALID,0.0169808,VALID,20.1557,VALID,3,VALID,0,
2006-03-21, 02:34:00,VALID,915.001,VALID,0,VALID,100,VALID,0,VALID,20.3586,VALID,3,VALID,0,
2006-03-21, 02:35:00,VALID,915.043,VALID,0,VALID,100,VALID,0.0339617,VALID,20.2091,VALID,3,VALID,0,
2006-03-21, 02:36:00,VALID,915.053,VALID,0,VALID,100,VALID,0.0169808,VALID,19.9544,VALID,3,VALID,0.341206,
2006-03-21, 02:37:00,VALID,915.064,VALID,0,VALID,100,VALID,0.0339617,VALID,20.7919,VALID,3,VALID,0.298047,
2006-03-21, 02:38:00,VALID,915.065,VALID,0,VALID,100,VALID,0,VALID,19.9575,VALID,3,VALID,0.0517113,
2006-03-21, 02:39:00,VALID,915.069,VALID,0,VALID,100,VALID,0.0169808,VALID,19.716,VALID,8,VALID,0.615473,
2006-03-21, 02:40:00,VALID,915.052,VALID,0,VALID,100,VALID,0.0169808,VALID,19.9093,VALID,6,VALID,0.723214,
2006-03-21, 02:41:00,VALID,915.036,VALID,0,VALID,100,VALID,0.0169808,VALID,20.1688,VALID,2,VALID,0.830031,
2006-03-21, 02:42:00,VALID,915.033,VALID,0,VALID,100,VALID,0.0339617,VALID,20.5419,VALID,2,VALID,0.800595,
2006-03-21, 02:43:00,VALID,915.033,VALID,0,VALID,100,VALID,0,VALID,20.45,VALID,9,VALID,0.601918,
2006-03-21, 02:44:00,VALID,915.023,VALID,0,VALID,100,VALID,-0.0849042,VALID,19.8689,VALID,8,VALID,0.230469,
2006-03-21, 02:45:00,VALID,915.019,VALID,0,VALID,100,VALID,0,VALID,19.1388,VALID,8,VALID,0.102471,
2006-03-21, 02:46:00,VALID,915.026,VALID,0,VALID,100,VALID,-0.0169808,VALID,19.79,VALID,8,VALID,0.253534,
2006-03-21, 02:47:00,VALID,915.029,VALID,0,VALID,100,VALID,-0.0679233,VALID,19.8635,VALID,8,VALID,0.101895,
2006-03-21, 02:48:00,VALID,915.021,VALID,0,VALID,99.9967,VALID,-0.0169808,VALID,20.8704,VALID,9,VALID,0.409339,
2006-03-21, 02:49:00,VALID,915.037,VALID,0,VALID,100,VALID,-0.0509425,VALID,19.9049,VALID,13,VALID,0.406432,
2006-03-21, 02:50:00,VALID,915.026,VALID,0,VALID,100,VALID,-0.0169808,VALID,20.5951,VALID,13,VALID,0.402902,
2006-03-21, 02:51:00,VALID,915.036,VALID,0,VALID,100,VALID,-0.0339617,VALID,20.1428,VALID,13,VALID,0.372713,
2006-03-21, 02:52:00,VALID,915.054,VALID,0,VALID,100,VALID,-0.0169808,VALID,19.4359,VALID,13,VALID,0.356597,
2006-03-21, 02:53:00,VALID,915.074,VALID,0,VALID,100,VALID,-0.0169808,VALID,20.13,VALID,12,VALID,0.356055,
2006-03-21, 02:54:00,VALID,915.089,VALID,0,VALID,100,VALID,-0.0169808,VALID,20.3415,VALID,12,VALID,0.404119,
2006-03-21, 02:55:00,VALID,915.128,VALID,0,VALID,100,VALID,-0.0509425,VALID,19.4373,VALID,12,VALID,0.274528,
2006-03-21, 02:56:00,VALID,915.137,VALID,0,VALID,100,VALID,0,VALID,19.7667,VALID,12,VALID,0.222301,
2006-03-21, 02:57:00,VALID,915.148,VALID,0,VALID,100,VALID,-0.0169808,VALID,19.1751,VALID,11,VALID,0.338415,
2006-03-21, 02:58:00,VALID,915.134,VALID,0,VALID,100,VALID,0,VALID,20.2747,VALID,353,VALID,0.500953,
2006-03-21, 02:59:00,VALID,915.138,VALID,0,VALID,100,VALID,0,VALID,19.7478,VALID,352,VALID,0.334121,
2006-03-21, 03:00:00,VALID,915.121,VALID,0,VALID,100,VALID,0,VALID,20.2092,VALID,352,VALID,0.317827,
2006-03-21, 03:01:00,VALID,915.116,VALID,0,VALID,100,VALID,0,VALID,20.2857,VALID,342,VALID,0.33085,
2006-03-21, 03:02:00,VALID,915.108,VALID,0,VALID,100,VALID,0,VALID,20.2488,VALID,340,VALID,0.0545099,
2006-03-21, 03:03:00,VALID,915.101,VALID,0,VALID,100,VALID,0,VALID,19.9729,VALID,340,VALID,0.371951,
2006-03-21, 03:04:00,VALID,915.097,VALID,0,VALID,100,VALID,-0.0339617,VALID,19.9798,VALID,340,VALID,0.135603,
2006-03-21, 03:05:00,VALID,915.071,VALID,0,VALID,100,VALID,-0.0169808,VALID,19.8084,VALID,348,VALID,0.469531,
2006-03-21, 03:06:00,VALID,915.055,VALID,0,VALID,100,VALID,0,VALID,19.2326,VALID,357,VALID,0.632813,
2006-03-21, 03:07:00,VALID,915.074,VALID,0,VALID,100,VALID,-0.0169808,VALID,20.2196,VALID,354,VALID,0.774435,
2006-03-21, 03:08:00,VALID,915.068,VALID,0,VALID,100,VALID,-0.0679233,VALID,20.1557,VALID,345,VALID,0.600818,
2006-03-21, 03:09:00,VALID,915.081,VALID,0,VALID,100,VALID,0.0679233,VALID,19.3181,VALID,343,VALID,0.546503,
2006-03-21, 03:10:00,VALID,915.085,VALID,0,VALID,100,VALID,-0.0169808,VALID,19.8412,VALID,343,VALID,0.462612,
2006-03-21, 03:11:00,VALID,915.092,VALID,0,VALID,100,VALID,-0.0509425,VALID,19.6172,VALID,349,VALID,0.486049,
2006-03-21, 03:12:00,VALID,915.088,VALID,0,VALID,100,VALID,-0.0339617,VALID,20.2419,VALID,347,VALID,1.09794,
2006-03-21, 03:13:00,VALID,915.112,VALID,0,VALID,100,VALID,-0.0339617,VALID,19.7724,VALID,7,VALID,1.17839,
2006-03-21, 03:14:00,VALID,915.113,VALID,0,VALID,100,VALID,-0.0679233,VALID,20.0851,VALID,7,VALID,0.942264,
2006-03-21, 03:15:00,VALID,915.133,VALID,0,VALID,100,VALID,-0.0339617,VALID,20.636,VALID,358,VALID,0.982067,
2006-03-21, 03:16:00,VALID,915.142,VALID,0,VALID,100,VALID,0,VALID,19.5254,VALID,352,VALID,1.46038,
2006-03-21, 03:17:00,VALID,915.126,VALID,0,VALID,100,VALID,-0.0339617,VALID,19.5523,VALID,356,VALID,1.1766,
2006-03-21, 03:18:00,VALID,915.14,VALID,0,VALID,100,VALID,-0.0169808,VALID,19.6541,VALID,360,VALID,1.39648,
2006-03-21, 03:19:00,VALID,915.137,VALID,0,VALID,100,VALID,-0.0679233,VALID,19.9338,VALID,358,VALID,1.58538,
2006-03-21, 03:20:00,VALID,915.128,VALID,0,VALID,100,VALID,-0.0849042,VALID,19.094,VALID,354,VALID,1.72493,
2006-03-21, 03:21:00,VALID,915.119,VALID,0,VALID,100,VALID,-0.0679233,VALID,19.8534,VALID,357,VALID,1.59996,
2006-03-21, 03:22:00,VALID,915.104,VALID,0,VALID,100,VALID,0,VALID,18.8707,VALID,2,VALID,1.37824,
2006-03-21, 03:23:00,VALID,915.079,VALID,0,VALID,100,VALID,0.0339617,VALID,20.0868,VALID,350,VALID,0.959736,
2006-03-21, 03:24:00,VALID,915.06,VALID,0,VALID,100,VALID,0.0339617,VALID,19.6241,VALID,350,VALID,0.909446,
2006-03-21, 03:25:00,VALID,915.051,VALID,0,VALID,100,VALID,-0.0679233,VALID,20.4461,VALID,349,VALID,0.927269,
2006-03-21, 03:26:00,VALID,915.023,VALID,0,VALID,100,VALID,-0.0339617,VALID,19.8244,VALID,345,VALID,0.994186,
2006-03-21, 03:27:00,VALID,915.016,VALID,0,VALID,100,VALID,-0.0679233,VALID,19.662,VALID,359,VALID,1.06517,
2006-03-21, 03:28:00,VALID,915.004,VALID,0,VALID,100,VALID,-0.0679233,VALID,20.0635,VALID,326,VALID,1.25521,
2006-03-21, 03:29:00,VALID,914.993,VALID,0,VALID,100,VALID,-0.0849042,VALID,19.8719,VALID,329,VALID,1.44568,
2006-03-21, 03:30:00,VALID,914.985,VALID,0,VALID,100,VALID,-0.0849042,VALID,19.5611,VALID,355,VALID,1.28639,
2006-03-21, 03:31:00,VALID,914.977,VALID,0,VALID,100,VALID,-0.0509425,VALID,19.5463,VALID,353,VALID,1.26982,
2006-03-21, 03:32:00,VALID,914.988,VALID,0,VALID,100,VALID,-0.0679233,VALID,18.9759,VALID,358,VALID,0.900568,
2006-03-21, 03:33:00,VALID,914.979,VALID,0,VALID,100,VALID,-0.0339617,VALID,19.7549,VALID,314,VALID,1.18281,
2006-03-21, 03:34:00,VALID,914.996,VALID,0,VALID,100,VALID,0.0509425,VALID,20.1257,VALID,308,VALID,1.18555,
2006-03-21, 03:35:00,VALID,914.991,VALID,0,VALID,100,VALID,-0.0339617,VALID,19.6552,VALID,302,VALID,0.419457,
2006-03-21, 03:36:00,VALID,915,VALID,0,VALID,100,VALID,-0.0339617,VALID,19.7011,VALID,302,VALID,0.104106,
2006-03-21, 03:37:00,VALID,915.022,VALID,0,VALID,100,VALID,-0.0849042,VALID,19.7627,VALID,277,VALID,0.546113,
2006-03-21, 03:38:00,VALID,915.037,VALID,0,VALID,100,VALID,-0.0679233,VALID,20.2453,VALID,307,VALID,0.247514,
2006-03-21, 03:39:00,VALID,915.055,VALID,0,VALID,100,VALID,-0.0169808,VALID,19.8506,VALID,307,VALID,0.136186,